When you browse on this site, cookies collect data to enhance your experience and personalize the content and advertising you see.
Visit our Privacy Policy to learn more. By continuing to use the site, you agree to this use of cookies and data.
  • In United Kingdom
  • List of Countries
  • For 7 days
  • Water Temperature
  • Satellite Maps
  • Weather Map
  • Weather Widgets
  • user-avatar
    Login

    Hourly Weather Linz

    Today, 24 July, Wednesday

    Time Temperature Precipitation Wind Pressure Humidity
    00:00 +21°C° 0 mm 1 mps 737 mmHg 77%
    01:00 +21°C° 0 mm 1 mps 737 mmHg 78%
    02:00 +20°C° 0 mm 1 mps 737 mmHg 80%
    03:00 +19°C° 0 mm 1 mps 736 mmHg 82%
    04:00 +19°C° 0 mm 1 mps 736 mmHg 84%
    05:00 +20°C° 0 mm 1 mps 736 mmHg 81%
    06:00 +22°C° 0 mm 1 mps 736 mmHg 78%
    07:00 +23°C° 0 mm 1 mps 736 mmHg 76%
    08:00 +25°C° 0 mm 1 mps 736 mmHg 71%
    09:00 +26°C° 0 mm 1 mps 736 mmHg 66%
    10:00 +28°C° 0 mm 2 mps 736 mmHg 61%
    11:00 +29°C° 0 mm 2 mps 736 mmHg 56%
    12:00 +30°C° 0 mm 2 mps 736 mmHg 52%
    13:00 +31°C° 0 mm 2 mps 735 mmHg 48%
    14:00 +31°C° 0 mm 2 mps 735 mmHg 47%
    15:00 +32°C° 0 mm 2 mps 735 mmHg 47%
    16:00 +32°C° 0 mm 2 mps 735 mmHg 47%
    17:00 +30°C° 0 mm 2 mps 735 mmHg 55%
    18:00 +28°C° 0 mm 1 mps 735 mmHg 62%
    19:00 +27°C° 0 mm 1 mps 735 mmHg 69%
    20:00 +25°C° 0 mm 1 mps 735 mmHg 71%
    21:00 +24°C° 0 mm 1 mps 736 mmHg 73%
    22:00 +22°C° 0 mm 1 mps 736 mmHg 75%
    23:00 +22°C° 0 mm 1 mps 736 mmHg 75%

    Tomorrow, 25 July, Thursday

    Time Temperature Precipitation Wind Pressure Humidity
    00:00 +21°C° 0 mm 1 mps 736 mmHg 76%
    01:00 +21°C° 0 mm 1 mps 736 mmHg 77%
    02:00 +20°C° 0 mm 1 mps 736 mmHg 77%
    03:00 +20°C° 0 mm 1 mps 736 mmHg 78%
    04:00 +19°C° 0 mm 1 mps 736 mmHg 79%
    05:00 +21°C° 0 mm 1 mps 736 mmHg 77%
    06:00 +22°C° 0 mm 1 mps 736 mmHg 75%
    07:00 +23°C° 0 mm 1 mps 736 mmHg 72%
    08:00 +25°C° 0 mm 1 mps 736 mmHg 68%
    09:00 +27°C° 0 mm 1 mps 736 mmHg 63%
    10:00 +28°C° 0 mm 2 mps 736 mmHg 58%
    11:00 +30°C° 0 mm 2 mps 736 mmHg 54%
    12:00 +31°C° 0 mm 2 mps 735 mmHg 49%
    13:00 +32°C° 0 mm 2 mps 735 mmHg 45%
    14:00 +32°C° 0 mm 2 mps 735 mmHg 45%
    15:00 +32°C° 0 mm 2 mps 734 mmHg 46%
    16:00 +32°C° 0 mm 2 mps 734 mmHg 46%
    17:00 +30°C° 0 mm 2 mps 734 mmHg 53%
    18:00 +28°C° 0 mm 2 mps 734 mmHg 61%
    19:00 +27°C° 0 mm 2 mps 734 mmHg 68%
    20:00 +25°C° 0 mm 2 mps 734 mmHg 69%
    21:00 +24°C° 0 mm 1 mps 734 mmHg 71%
    22:00 +22°C° 0 mm 1 mps 734 mmHg 72%
    23:00 +22°C° 0 mm 1 mps 734 mmHg 74%

    Day after tomorrow, 26 July, Friday

    Time Temperature Precipitation Wind Pressure Humidity
    00:00 +21°C° 0 mm 1 mps 734 mmHg 75%
    01:00 +21°C° 0 mm 1 mps 734 mmHg 77%
    02:00 +20°C° 0 mm 1 mps 733 mmHg 79%
    03:00 +18°C° 0 mm 0 mps 733 mmHg 81%
    04:00 +17°C° 0 mm 0 mps 733 mmHg 83%
    05:00 +20°C° 0 mm 1 mps 733 mmHg 80%
    06:00 +22°C° 0 mm 1 mps 732 mmHg 77%
    07:00 +23°C° 0 mm 1 mps 732 mmHg 74%
    08:00 +24°C° 0 mm 1 mps 732 mmHg 69%
    09:00 +26°C° 0 mm 2 mps 732 mmHg 64%
    10:00 +28°C° 0 mm 2 mps 732 mmHg 60%
    11:00 +29°C° 0 mm 2 mps 732 mmHg 55%
    12:00 +30°C° 0 mm 2 mps 731 mmHg 51%
    13:00 +31°C° 0 mm 2 mps 731 mmHg 47%
    14:00 +31°C° 0 mm 3 mps 731 mmHg 48%
    15:00 +31°C° 0 mm 3 mps 730 mmHg 48%
    16:00 +31°C° 0 mm 3 mps 730 mmHg 49%
    17:00 +30°C° 0 mm 3 mps 730 mmHg 55%
    18:00 +28°C° 0 mm 2 mps 730 mmHg 62%
    19:00 +26°C° 0 mm 2 mps 730 mmHg 69%
    20:00 +25°C° 0 mm 2 mps 730 mmHg 70%
    21:00 +24°C° 0 mm 2 mps 730 mmHg 72%
    22:00 +21°C° 0 mm 3 mps 730 mmHg 73%
    23:00 +20°C° 0 mm 3 mps 730 mmHg 75%

    27 July, Saturday

    Time Temperature Precipitation Wind Pressure Humidity
    00:00 +20°C° 0 mm 2 mps 729 mmHg 76%
    01:00 +19°C° 0 mm 2 mps 729 mmHg 78%
    02:00 +18°C° 0 mm 2 mps 729 mmHg 79%
    03:00 +18°C° 0 mm 2 mps 728 mmHg 81%
    04:00 +17°C° 0 mm 2 mps 728 mmHg 83%
    05:00 +18°C° 0 mm 2 mps 728 mmHg 81%
    06:00 +19°C° 0 mm 2 mps 728 mmHg 78%
    07:00 +20°C° 0 mm 3 mps 728 mmHg 76%
    08:00 +22°C° 0 mm 3 mps 728 mmHg 71%
    09:00 +23°C° 0 mm 4 mps 728 mmHg 66%
    10:00 +26°C° 0 mm 4 mps 728 mmHg 60%
    11:00 +27°C° 0 mm 4 mps 727 mmHg 58%
    12:00 +28°C° 0 mm 5 mps 727 mmHg 56%
    13:00 +29°C° 0 mm 5 mps 727 mmHg 54%
    14:00 +29°C° 0 mm 5 mps 726 mmHg 54%
    15:00 +29°C° 0 mm 5 mps 726 mmHg 55%
    16:00 +29°C° 0 mm 5 mps 726 mmHg 55%
    17:00 +28°C° 0 mm 5 mps 726 mmHg 60%
    18:00 +26°C° 0 mm 5 mps 726 mmHg 65%
    19:00 +25°C° 0 mm 4 mps 726 mmHg 69%
    20:00 +23°C° 0 mm 4 mps 726 mmHg 70%
    21:00 +23°C° 0 mm 4 mps 726 mmHg 71%
    22:00 +22°C° 0 mm 4 mps 726 mmHg 71%
    23:00 +21°C° 0 mm 4 mps 726 mmHg 73%

    28 July, Sunday

    Time Temperature Precipitation Wind Pressure Humidity
    00:00 +21°C° 0 mm 3 mps 726 mmHg 75%
    01:00 +20°C° 0 mm 3 mps 726 mmHg 76%
    02:00 +19°C° 0 mm 3 mps 726 mmHg 79%
    03:00 +19°C° 0 mm 2 mps 725 mmHg 82%
    04:00 +18°C° 0 mm 2 mps 725 mmHg 85%
    05:00 +19°C° 0 mm 2 mps 725 mmHg 82%
    06:00 +20°C° 0 mm 2 mps 726 mmHg 80%
    07:00 +20°C° 0 mm 2 mps 726 mmHg 78%
    08:00 +23°C° 0 mm 2 mps 726 mmHg 74%
    09:00 +24°C° 0 mm 2 mps 726 mmHg 70%
    10:00 +25°C° 0 mm 2 mps 727 mmHg 66%
    11:00 +26°C° 0.2 mm 2 mps 726 mmHg 65%
    12:00 +27°C° 0.2 mm 2 mps 726 mmHg 63%
    13:00 +28°C° 0.2 mm 2 mps 726 mmHg 61%
    14:00 +27°C° 0.5 mm 2 mps 726 mmHg 63%
    15:00 +27°C° 0.5 mm 2 mps 726 mmHg 64%
    16:00 +27°C° 0.5 mm 2 mps 727 mmHg 66%
    17:00 +26°C° 0.8 mm 2 mps 727 mmHg 72%
    18:00 +24°C° 0.8 mm 1 mps 727 mmHg 79%
    19:00 +23°C° 0.8 mm 1 mps 727 mmHg 86%
    20:00 +22°C° 0.4 mm 1 mps 728 mmHg 88%
    21:00 +21°C° 0.4 mm 1 mps 728 mmHg 90%
    22:00 +20°C° 0.4 mm 1 mps 729 mmHg 92%
    23:00 +19°C° 0 mm 1 mps 729 mmHg 92%

    29 July, Monday

    Time Temperature Precipitation Wind Pressure Humidity
    00:00 +19°C° 0 mm 1 mps 729 mmHg 93%
    01:00 +18°C° 0 mm 2 mps 730 mmHg 94%
    02:00 +17°C° 0 mm 2 mps 730 mmHg 94%
    03:00 +17°C° 0 mm 2 mps 730 mmHg 94%
    04:00 +17°C° 0 mm 2 mps 730 mmHg 94%
    05:00 +18°C° 0 mm 2 mps 730 mmHg 93%
    06:00 +18°C° 0 mm 2 mps 731 mmHg 92%
    07:00 +19°C° 0 mm 2 mps 731 mmHg 90%
    08:00 +20°C° 0 mm 2 mps 731 mmHg 84%
    09:00 +23°C° 0 mm 2 mps 732 mmHg 78%
    10:00 +24°C° 0 mm 2 mps 732 mmHg 72%
    11:00 +25°C° 0 mm 2 mps 732 mmHg 67%
    12:00 +27°C° 0 mm 1 mps 732 mmHg 63%
    13:00 +28°C° 0 mm 1 mps 732 mmHg 59%
    14:00 +28°C° 0 mm 1 mps 732 mmHg 58%
    15:00 +29°C° 0 mm 2 mps 732 mmHg 58%
    16:00 +29°C° 0 mm 2 mps 732 mmHg 57%
    17:00 +28°C° 0.3 mm 1 mps 732 mmHg 65%
    18:00 +26°C° 0.3 mm 1 mps 732 mmHg 73%
    19:00 +25°C° 0.3 mm 1 mps 732 mmHg 80%
    20:00 +24°C° 0 mm 1 mps 732 mmHg 83%
    21:00 +22°C° 0 mm 1 mps 733 mmHg 85%
    22:00 +21°C° 0 mm 1 mps 733 mmHg 88%
    23:00 +21°C° 0 mm 1 mps 733 mmHg 89%
    Show more